Wind_Speed
33 31 30 32 33 34 34 36 36 36 34 32 26 22 24 32 30 31 31 28 26 25 25 25 24 23 22 20 19 19 18 17 14 12 11 10 9 9 8 8 8 8 6
35 35 32 32 34 33 37 38 39 38 36 34 28 21 24 34 32 31 32 30 27 26 26 24 23 22 22 21 20 19 18 16 13 13 12 10 11 10 10 9 10 8 6
37 38 34 34 36 31 38 39 39 38 36 33 30 24 29 33 32 32 31 31 29 27 26 23 20 20 20 22 22 19 18 16 15 13 13 12 11 12 12 11 11 10 8
37 35 37 36 36 35 40 42 42 40 37 35 33 29 31 32 33 33 32 33 32 30 27 23 24 22 21 24 22 21 19 18 16 15 14 13 13 14 14 14 13 11 9
45 41 38 37 38 38 40 44 43 42 39 36 35 32 31 31 34 34 33 32 33 34 32 28 26 25 25 25 25 22 20 19 18 16 15 14 14 15 14 13 12 11 10
47 48 40 37 41 39 37 40 41 40 38 33 29 31 30 32 34 35 33 32 33 34 33 31 29 29 28 28 27 24 22 20 19 18 17 16 16 17 15 14 13 12 11
46 48 46 41 43 43 43 48 42 41 32 33 25 23 23 29 31 35 34 33 34 35 35 35 34 32 31 30 28 27 24 22 21 21 20 19 18 18 17 16 15 13 13
48 47 46 44 46 43 42 42 39 34 30 37 25 21 4 7 25 33 35 35 36 37 38 37 37 36 35 34 33 30 27 25 24 23 22 21 20 20 20 18 17 16 14
41 46 46 44 46 46 45 49 47 43 35 36 34 18 4 5 8 20 33 37 38 40 41 41 39 39 38 37 35 35 32 29 27 26 25 24 23 21 20 21 19 18 17
44 34 46 47 45 48 44 49 49 45 43 38 35 34 22 13 6 3 20 34 37 42 43 44 43 41 41 40 39 38 38 35 33 30 29 27 26 25 22 20 19 19 19
25 39 37 42 47 48 46 47 46 44 45 41 42 38 30 17 19 5 5 18 30 38 42 44 44 44 43 43 42 41 39 38 35 35 34 31 29 28 28 24 22 21 21
23 24 40 46 53 50 47 47 49 49 47 42 43 42 40 22 16 9 3 20 24 22 37 42 44 44 44 45 45 44 41 40 38 37 38 37 33 31 30 27 24 23 23
19 25 32 38 36 47 48 46 48 48 48 45 46 43 41 36 26 26 13 12 8 12 22 36 43 44 43 43 44 42 40 39 37 39 38 38 38 36 33 29 26 25 25
15 15 30 35 35 25 47 47 47 48 49 48 46 46 43 40 35 34 24 18 3 4 11 14 42 46 46 45 44 41 39 37 36 36 37 38 38 39 37 33 30 28 28
14 10 23 26 30 36 49 48 44 48 49 49 46 48 44 41 39 37 33 31 16 7 11 21 17 46 50 48 46 43 40 39 37 35 35 36 36 39 40 37 34 32 31
18 10 7 10 16 24 31 17 39 48 47 47 46 44 43 39 37 40 40 36 28 18 5 26 34 24 43 48 47 45 42 40 38 37 37 37 37 36 39 39 38 37 34
28 20 6 17 14 19 39 38 26 44 47 46 45 44 46 44 38 38 41 41 37 28 10 13 32 34 26 37 40 43 42 42 42 40 39 39 39 39 38 37 38 39 39
29 22 18 33 23 5 8 35 25 15 47 44 45 44 43 42 38 36 40 38 38 40 27 14 25 29 35 35 32 37 39 41 41 40 40 39 40 40 41 40 39 39 40
30 30 30 41 41 30 9 6 5 26 12 25 42 43 41 41 39 37 38 37 35 38 40 29 22 25 31 33 32 31 32 35 36 38 39 37 39 40 42 42 41 41 40
31 29 30 39 44 37 25 14 10 2 1 7 9 9 33 40 40 39 35 39 38 32 38 31 18 19 26 28 31 31 30 35 38 38 38 36 32 36 40 44 45 43 44
29 28 32 41 42 36 32 25 15 17 7 5 5 12 7 17 42 44 36 34 34 35 31 29 17 13 18 19 27 34 30 35 39 40 38 37 34 35 38 42 44 46 47
31 32 35 42 38 33 31 29 31 28 21 16 12 8 0 11 20 42 48 43 42 35 32 28 27 21 25 29 32 35 32 19 8 37 37 41 37 38 38 38 41 45 46
28 34 41 33 29 32 39 37 34 33 28 25 20 15 10 10 6 16 36 46 44 45 45 40 34 32 32 37 36 29 29 29 28 34 32 26 35 38 41 41 41 41 43
31 32 29 32 35 34 40 39 36 30 26 23 24 25 22 22 25 8 16 30 43 44 46 47 40 40 42 40 44 43 40 37 32 32 32 22 37 40 41 43 44 43 42
23 25 25 30 32 34 38 36 33 26 23 22 20 21 23 22 24 25 7 18 23 39 47 49 51 43 41 40 42 39 33 27 18 27 36 28 31 33 40 43 42 43 44
25 25 30 33 31 32 31 29 28 26 24 23 20 17 17 22 20 21 22 15 8 9 20 33 44 49 45 44 44 45 37 30 23 9 31 30 30 27 8 35 40 41 42
Wind_Direction
191 192 195 192 193 192 193 191 190 187 187 185 184 195 196 188 185 183 179 181 180 178 176 174 175 176 176 176 172 166 163 163 172 176 177 182 186 181 179 170 174 169 166
192 193 195 195 193 196 196 195 193 191 191 188 186 194 191 184 186 186 182 182 184 181 178 175 176 179 179 178 173 169 170 178 185 183 185 191 186 188 186 177 171 169 164
197 194 194 197 197 194 198 198 196 196 193 192 189 192 189 186 188 189 186 183 185 184 180 177 178 180 182 179 177 179 186 189 186 188 191 189 195 189 186 191 201 193 193
204 197 196 199 195 196 199 199 197 198 196 193 190 192 193 194 194 192 190 187 185 186 185 183 185 188 183 186 188 189 192 190 191 194 197 200 198 198 204 212 214 214 216
202 202 201 199 195 196 199 198 198 198 198 194 192 190 193 195 195 192 193 194 192 190 188 189 191 194 191 191 193 197 196 198 200 202 202 201 200 204 213 210 209 212 220
205 201 204 200 195 194 196 196 197 198 199 194 185 189 196 197 197 198 197 197 198 197 193 191 194 197 196 197 197 199 201 203 204 204 205 206 208 211 214 214 216 221 227
210 205 204 200 195 195 194 197 194 193 192 192 168 182 191 200 203 202 200 201 201 199 196 197 198 198 199 201 202 203 205 207 209 208 210 211 209 214 221 221 226 230 232
212 212 206 201 199 198 193 194 190 188 190 185 182 160 137 209 208 204 204 205 204 203 203 203 204 203 205 205 208 208 209 211 210 211 211 212 213 218 226 228 232 236 237
218 215 214 207 200 200 195 193 191 188 184 190 188 175 145 200 159 212 210 208 207 207 208 208 210 209 210 213 213 213 214 212 212 213 212 213 217 220 227 231 236 239 241
287 311 218 213 206 202 200 195 194 190 186 188 194 198 191 152 170 163 213 214 212 212 212 213 214 215 214 216 218 220 220 216 213 214 215 216 218 225 224 226 230 232 233
255 271 281 225 208 207 202 196 194 193 192 190 190 194 204 195 191 147 177 202 217 218 217 217 219 219 220 221 222 225 227 228 223 218 218 220 223 225 235 236 230 225 219
252 274 283 302 208 204 203 199 195 195 193 196 194 196 198 188 187 169 134 190 206 214 216 219 221 223 225 226 228 230 231 231 233 229 224 223 223 229 233 237 225 219 217
256 248 253 268 228 199 203 200 196 196 196 196 195 198 201 202 199 202 173 170 181 195 211 222 223 225 226 228 229 232 232 232 235 235 232 228 228 231 233 233 233 217 216
284 242 200 239 260 263 202 198 198 199 198 200 198 199 201 205 204 199 191 159 123 171 195 204 222 227 228 230 232 233 235 234 235 237 236 232 230 232 235 233 231 228 219
312 293 235 223 260 276 222 197 195 200 198 202 203 201 201 204 206 204 201 188 166 174 211 212 197 224 228 231 234 234 235 237 235 236 236 235 235 233 235 236 235 230 227
350 336 268 189 227 274 288 210 202 199 200 202 204 201 203 202 204 210 206 207 203 178 199 211 213 219 224 227 234 236 237 240 240 238 238 238 237 237 236 236 237 235 231
359 7 357 136 165 214 226 234 272 202 199 201 204 202 203 202 200 205 209 209 208 204 189 204 223 220 221 223 228 236 240 242 243 241 241 241 240 239 239 240 241 239 236
5 7 26 69 59 62 210 218 234 276 195 201 201 203 202 202 200 202 203 207 208 214 212 198 211 216 220 224 227 231 237 242 245 246 242 241 243 242 241 242 242 245 242
5 22 31 53 52 42 43 70 223 225 29 205 202 201 203 200 202 201 202 206 209 209 214 220 212 213 216 218 218 228 235 242 248 250 252 248 244 245 244 244 244 244 245
1 24 33 47 50 38 37 62 41 80 268 338 304 187 210 203 205 204 201 203 205 204 207 210 197 194 206 214 220 218 228 237 244 248 252 252 248 245 242 243 244 245 246
355 23 38 46 45 34 31 50 67 52 28 328 356 252 254 242 210 206 204 209 206 202 204 208 205 188 193 198 204 219 224 236 241 242 246 249 246 241 238 239 241 242 244
1 20 33 42 36 27 30 47 58 58 38 27 7 3 164 296 257 217 210 212 208 204 208 208 213 212 210 214 215 215 215 207 236 239 238 246 244 245 245 242 240 240 240
11 25 33 32 32 30 26 41 46 56 45 33 40 38 41 30 333 240 221 215 216 217 219 213 211 216 221 220 222 212 209 213 224 234 226 231 244 245 248 248 246 244 243
19 24 23 27 32 23 24 27 41 43 46 36 31 42 36 27 22 346 221 222 219 217 220 225 222 221 224 228 225 227 227 228 233 236 235 214 238 240 249 251 249 247 246
21 26 25 29 27 23 25 21 27 26 32 31 25 26 27 20 20 15 303 230 236 226 228 229 227 231 234 233 232 224 220 209 215 226 224 219 232 241 245 247 251 251 249
15 20 27 28 25 26 26 20 20 21 19 13 10 10 18 8 9 20 24 21 299 250 222 228 233 233 233 234 233 227 217 210 216 222 227 209 226 228 239 249 247 247 248
Height
783 789 792 795 798 801 805 808 812 815 819 822 826 830 830 833 836 839 842 846 849 852 855 858 861 865 868 871 874 877 880 884 886 888 890 892 893 895 897 898 900 901 903
775 782 788 791 794 797 801 805 808 812 817 820 824 827 829 832 835 838 841 845 848 852 855 858 860 864 867 871 874 878 881 884 886 888 890 892 894 896 897 899 900 902 903
772 775 781 785 789 793 797 802 807 812 814 819 822 825 828 830 833 837 840 843 847 851 854 858 860 863 866 870 873 877 880 883 886 888 890 892 893 895 897 898 900 902 903
768 774 775 778 783 787 792 798 802 808 813 816 819 823 826 829 832 835 839 842 844 849 853 856 859 862 865 868 872 875 879 882 885 887 889 890 892 894 896 897 899 901 902
755 766 769 772 776 782 786 792 798 802 808 813 817 821 825 828 830 833 836 840 843 846 850 854 858 861 863 866 870 874 877 880 882 885 887 889 890 892 894 896 898 900 902
750 752 761 766 769 774 780 786 792 797 802 810 817 820 824 827 830 832 834 838 841 845 848 852 855 858 862 864 867 871 874 877 879 882 884 887 889 891 893 895 897 899 900
744 743 748 755 760 762 767 774 781 789 798 806 814 821 825 827 828 830 832 835 838 842 846 849 851 855 859 862 865 867 870 873 875 878 881 884 886 888 891 893 895 897 898
735 739 742 746 751 757 761 768 776 782 791 796 803 815 824 830 827 828 829 831 835 839 842 845 848 851 854 857 860 863 866 869 871 874 877 880 882 885 888 890 893 894 896
722 732 738 741 744 749 752 755 763 769 779 788 794 796 813 817 819 823 825 827 830 833 836 840 843 846 849 852 855 858 860 863 866 869 872 875 878 881 884 886 889 892 893
694 716 727 733 737 741 746 747 753 759 767 774 786 789 792 793 805 818 820 823 826 827 829 833 837 840 844 846 849 851 853 856 860 863 866 869 872 876 879 882 885 888 890
714 724 713 723 725 733 737 740 747 753 758 764 771 780 785 790 792 797 808 816 821 821 823 826 831 834 838 841 843 845 849 852 856 859 861 864 867 870 873 878 880 883 886
704 691 699 697 710 719 727 732 736 743 748 757 764 768 771 778 782 784 790 802 806 812 816 819 822 826 831 834 836 839 843 847 850 853 856 859 862 864 867 871 875 878 882
702 693 699 707 682 703 713 723 729 734 740 747 752 758 765 770 775 782 782 792 800 807 810 813 815 818 823 826 829 833 837 841 844 847 851 855 858 860 862 865 869 872 877
704 700 688 698 691 695 699 707 717 726 732 739 743 750 755 762 767 772 776 780 795 801 802 800 805 809 814 818 821 827 831 835 838 841 844 848 852 855 857 859 862 866 870
697 692 687 678 671 682 677 697 701 714 720 730 734 741 745 753 760 764 771 772 773 792 796 795 795 798 804 809 813 819 824 827 831 835 838 841 845 849 852 855 856 858 862
690 678 674 665 671 689 673 679 695 703 712 719 727 730 738 744 751 756 762 768 771 774 785 786 786 789 795 801 806 811 816 821 825 828 831 834 838 841 844 847 851 853 856
691 678 686 669 667 679 682 695 689 690 699 707 717 720 727 733 739 746 755 761 765 769 773 779 783 787 792 795 799 804 810 813 816 821 824 827 830 834 837 839 843 847 850
699 699 682 663 659 663 685 679 688 696 685 695 705 714 717 726 730 737 743 752 757 762 766 770 775 781 786 789 793 797 801 805 809 812 816 820 823 826 830 833 835 839 843
705 689 675 654 655 671 670 666 668 680 675 691 696 702 711 716 722 728 733 743 750 754 760 765 767 774 780 784 788 791 795 799 800 803 807 812 816 819 822 825 827 830 834
709 698 692 669 669 681 685 679 680 685 685 678 689 692 701 708 713 719 725 732 739 748 753 758 761 765 770 776 781 785 788 790 792 795 798 802 806 809 813 815 818 822 825
725 710 692 682 684 699 701 686 683 683 685 688 686 688 695 701 704 709 717 727 734 738 745 750 755 758 762 767 771 774 779 781 784 788 790 794 796 799 800 804 807 811 814
728 709 701 684 698 707 705 695 684 673 690 687 688 687 688 696 697 702 705 716 723 730 736 740 746 750 753 758 763 765 768 775 780 779 780 783 787 788 792 795 796 798 803
735 716 696 711 713 712 710 686 683 682 692 699 694 691 694 693 694 698 701 708 712 719 725 731 732 737 743 746 753 758 760 761 763 766 771 775 778 780 781 784 786 790 793
730 721 725 716 707 711 701 699 685 695 698 702 703 697 698 696 695 691 694 700 706 710 715 720 723 727 731 736 740 747 750 753 758 761 764 767 768 768 770 772 776 781 784
747 738 735 724 716 715 703 703 705 713 711 708 707 705 704 706 699 696 695 694 697 700 705 710 714 718 724 728 732 739 741 746 748 748 751 757 759 761 761 762 765 769 773
746 744 731 724 726 721 718 723 721 717 712 715 715 714 708 708 707 702 698 689 693 695 693 698 704 710 717 719 722 725 730 732 736 740 741 746 750 753 755 754 755 759 762